Regional Weather Roundup
Issued by NWS Boston, MA

Current Version | Previous Version | Text Only | Print | Product List | Glossary Off
Versions: 1 2 3 4 5 6 7 8 9 10 11 12 13 14 15 16 17 18 19 20 21 22 23 24 25 26 27 28 29 30 31 32 33 34 35 36 37 38 39 40 41 42 43 44 45 46 47 48 49 50
000 ASUS41 KBOX 202310 RWRBOX REGIONAL WEATHER ROUNDUP NATIONAL WEATHER SERVICE BOSTON/NORTON MA 700 PM EDT MON AUG 20 2018 NOTE: "FAIR" INDICATES FEW OR NO CLOUDS BELOW 12,000 FEET WITH NO SIGNIFICANT WEATHER AND/OR OBSTRUCTIONS TO VISIBILITY. MAZALL-210000- EASTERN MASSACHUSETTS CITY SKY/WX TMP DP RH WIND PRES REMARKS BOSTON FAIR 70 61 73 E13 30.16S BEVERLY FAIR 69 60 73 VRB7 30.15F LAWRENCE FAIR 73 58 59 NE7 30.18S BEDFORD FAIR 70 58 65 NE7 30.14S BLUE HILL N/A 65 61 87 E8 30.16S NORWOOD FAIR 70 61 73 NE7 30.15S MARSHFIELD FAIR 68 64 88 VRB6 30.15S PLYMOUTH CLOUDY 68 63 84 N10 30.15S TAUNTON FAIR 70 61 73 VRB6 30.14S NEW BEDFORD MOCLDY 69 63 81 N9G17 30.13R $$ MAZALL-210000- CAPE COD AND THE ISLANDS CITY SKY/WX TMP DP RH WIND PRES REMARKS FALMOUTH CLOUDY 66 63 88 NE10G16 30.14S HYANNIS CLOUDY 69 64 84 N8 30.11S CHATHAM CLOUDY 68 63 84 NE8G18 30.13S PROVINCETOWN CLOUDY 66 63 90 NE9 30.15S NANTUCKET CLOUDY 66 65 96 NE15 30.10S MARTHAS VNYRD CLOUDY 68 65 90 N13 30.11S $$ MAZALL-210000- CENTRAL AND WESTERN MASSACHUSETTS CITY SKY/WX TMP DP RH WIND PRES REMARKS WORCESTER CLOUDY 68 59 73 E7 30.17R FITCHBURG FAIR 70 59 68 E5 30.16S ORANGE FAIR 73 60 63 SE5 30.16R SPRINGFIELD PTCLDY 73 60 63 E3 30.13R WESTFIELD MOCLDY 75 62 64 VRB3 30.13R NORTH ADAMS FAIR 70 60 70 E3 30.14R PITTSFIELD FAIR 70 60 70 SE6 30.14R $$ RIZALL-210000- RHODE ISLAND CITY SKY/WX TMP DP RH WIND PRES REMARKS PROVIDENCE FAIR 71 58 63 NE14 30.14S NEWPORT MOCLDY 70 61 73 NE10G17 30.13S BLOCK ISLAND MOCLDY 69 64 84 NE9 30.13S SMITHFIELD FAIR 69 57 65 NE8 30.15S WESTERLY FAIR 74 62 66 NE7 30.13S $$ CTZALL-210000- CONNECTICUT CITY SKY/WX TMP DP RH WIND PRES REMARKS BRADLEY INTL MOCLDY 74 60 61 E7 30.13R HARTFORD FAIR 75 59 57 E6 30.11S BRIDGEPORT CLOUDY 74 64 71 S3 30.12R DANBURY FAIR 71 65 81 S5 30.14R GROTON MOCLDY 74 61 63 NE6 30.11S NEW HAVEN CLOUDY 75 66 73 VRB5 30.12S CHESTER FAIR 73 66 78 CALM 30.13S MERIDEN FAIR 74 61 63 SE3 30.11S WILLIMANTIC FAIR 74 59 59 E8 30.13S OXFORD MOCLDY 72 65 78 S5 30.14S $$ MEZ002-015-021-024-NHZ003-005-008-011-012-014-VTZ005-008-210000- NORTHERN NEW ENGLAND CITY SKY/WX TMP DP RH WIND PRES REMARKS PORTLAND ME FAIR 67 58 72 SE7 30.18R BANGOR ME MOCLDY 72 62 71 S7 30.16R CONCORD NH FAIR 71 59 65 SE5 30.16R MANCHESTER NH FAIR 72 58 61 SE7 30.15R NASHUA NH FAIR 72 61 68 SE7 30.16S PORTSMOUTH NH CLEAR 68 57 67 E3 30.15F JAFFREY NH FAIR 70 59 68 CALM 30.19R KEENE NH FAIR N/A N/A N/A CALM 30.15S BURLINGTON VT FAIR 80 57 45 W5 30.10R MT. WASHINGTON FOG 52 50 93 W6 N/A VSB 3/8 $$ NYZ052-076-210000- EASTERN NEW YORK CITY SKY/WX TMP DP RH WIND PRES REMARKS ALBANY FAIR 77 58 51 SE3 30.11S NEW YORK CITY FAIR 74 64 71 S7 30.11S $$ ANZALL-210000- MARINE OBSERVATIONS STATION/POSITION TIME TEMP WIND PRES VSBY WAVE AIR SEA DIR/SP/G HT/PER (UTC) (F) (DEG/KT/KT) (MB) (MI) (FT/S) BOSTON BUOY 2250 67 68 50/ 10/ 12 1020.2F 4/ 7 BUZZARDS BAY 2200 69 40/ 20/ 21 1020.1F NANTUCKET SOUND 2250 69 75 40/ 17/ 19 1019.6R 2/ 4 MASS BAY-STELLWA 2204 67 68 70/ 8/ 10 1019.6R 1 7/8 5/ 8 ISLE OF SHOALS 2200 66 50/ 5/ 6 1021.1F S OF BLOCK IS 2243 71 N/A 4/ 4 $$ ......................KEY......................... SKY/WX - SKY CONDITION/PRESENT WEATHER TMP - TEMPERATURE IN FAHRENHEIT DWPT - DEWPOINT IN FAHRENHEIT RH - RELATIVE HUMIDITY IN PERCENT WIND - DIRECTION AND SPEED IN MPH PRES - MEAN SEA LEVEL PRESSURE IN INCHES OF HG WCI - WIND CHILL INDEX VSB - VISIBILITY IN MILES HX - HEAT INDEX TC - TEMPERATURE IN CELSIUS VRB - VARIABLE WIND DIRECTION N/A - NOT AVAILABLE

USA.gov is the U.S. government's official web portal to all federal, state and local government web resources and services.